JA9GIL-13 Weather Reports


time (UTC)temp
C
wind
direction
speed
KPH
gust
KPH
rain 1hr
cm
rain 24hr
cm
rain mn
cm
humidity
%
barometer
mb
20260504160135 7 45 0.0 1.6 0.00 1.19 0.00 93 1015.8
20260504141334 8 45 1.6 3.2 0.00 1.60 1.37 92 1015.2
20260504140435 8 76 0.0 4.8 0.00 1.65 1.37 92 1015.4
20260504130134 9 80 3.2 8.0 0.00 1.93 1.37 93 1015.0
20260504110434 10 45 1.6 3.2 0.05 2.21 1.37 93 1012.8
20260504100134 10 11 1.6 6.4 0.00 2.29 1.32 93 1011.0
20260504081334 11 29 4.8 9.7 0.28 2.34 1.22 92 1008.0
20260504080434 11 36 4.8 8.0 0.28 2.36 1.22 91 1007.7
20260504070134 12 12 4.8 11.3 0.23 2.36 0.97 84 1006.3
20260504045534 15 34 6.4 17.7 0.00 2.13 0.71 70 1003.3
20260504044634 15 340 6.4 12.9 0.00 2.13 0.71 70 1003.1
20260504043734 15 33 6.4 19.3 0.00 2.13 0.71 68 1003.1
20260504042835 16 42 6.4 19.3 0.00 2.13 0.71 68 1002.9
20260504041934 16 47 6.4 20.9 0.00 2.13 0.71 67 1002.9
20260504041035 16 60 11.3 27.4 0.00 2.13 0.71 67 1002.7
20260504040134 16 296 6.4 17.7 0.00 2.13 0.71 68 1002.7
20260504034334 16 13 8.0 24.1 0.00 2.13 0.71 70 1002.0
20260504033434 16 6 12.9 17.7 0.00 2.13 0.71 70 1002.0
20260504032534 17 48 11.3 20.9 0.00 2.13 0.71 72 1001.9
20260504031635 17 25 11.3 17.7 0.00 2.13 0.71 75 1001.9
20260504030734 16 60 8.0 14.5 0.03 2.13 0.71 77 1001.7
20260504025834 16 86 6.4 24.1 0.03 2.13 0.71 73 1001.7
20260504024934 16 354 11.3 22.5 0.03 2.13 0.71 76 1001.5
20260504024034 16 40 12.9 19.3 0.03 2.13 0.71 82 1001.4
20260504023134 15 21 6.4 12.9 0.03 2.13 0.71 83 1001.5
20260504022235 15 347 9.7 17.7 0.03 2.13 0.71 85 1001.4
20260504021334 15 32 3.2 11.3 0.03 2.13 0.71 86 1001.5
20260504020434 15 47 3.2 25.7 0.00 2.11 0.69 84 1001.5
20260504015534 15 32 11.3 25.7 0.00 2.11 0.69 83 1001.6
20260504014635 15 36 6.4 12.9 0.00 2.11 0.69 84 1001.4
20260504013734 15 31 8.0 12.9 0.00 2.11 0.69 84 1001.3
20260504012834 15 13 4.8 20.9 0.00 2.11 0.69 84 1001.2
20260504011934 16 6 6.4 12.9 0.00 2.11 0.69 84 1001.1
20260504010135 15 321 4.8 16.1 0.00 2.11 0.69 86 1001.0
20260504005234 15 17 6.4 12.9 0.00 2.11 0.69 85 1000.9
20260504004334 15 28 6.4 14.5 0.00 2.11 0.69 84 1000.9
20260504003434 15 13 4.8 17.7 0.00 2.11 0.69 85 1000.8
20260504002535 15 76 8.0 14.5 0.00 2.11 0.69 84 1001.2
20260504001634 15 104 6.4 24.1 0.00 2.11 0.69 83 1001.0
20260504000735 16 341 6.4 12.9 0.00 2.11 0.69 85 1000.7
20260503234935 16 51 3.2 9.7 0.00 2.11 0.69 88 1000.6
20260503234035 16 27 6.4 12.9 0.00 2.11 0.69 89 1000.1
20260503232234 15 9 6.4 9.7 0.00 2.11 0.69 92 1000.1
20260503231334 15 14 4.8 12.9 0.00 2.11 0.69 92 1000.1
20260503225534 15 327 4.8 12.9 0.00 2.11 0.69 95 1000.0
20260503224634 16 15 6.4 12.9 0.00 2.11 0.69 99 1000.2
20260503223734 16 33 3.2 8.0 0.00 2.11 0.69 99 1000.1
20260503222834 16 55 1.6 4.8 0.00 2.11 0.69 99 1000.1
20260503221934 16 71 3.2 4.8 0.00 2.11 0.69 99 1000.3
20260503220134 15 72 3.2 3.2 0.03 2.11 0.69 99 1000.3
20260503213434 14 231 0.0 3.2 0.03 2.11 0.69 97 1000.6
20260503212535 14 203 0.0 3.2 0.03 2.11 0.69 97 1000.6
20260503211635 14 76 0.0 3.2 0.03 2.11 0.69 97 1000.4
20260503205834 14 240 3.2 6.4 0.00 2.06 0.66 97 1000.0
20260503204935 14 45 0.0 3.2 0.00 2.06 0.66 97 999.8
20260503203134 14 66 3.2 9.7 0.00 2.06 0.66 96 1000.1
20260503202235 14 50 3.2 11.3 0.00 2.06 0.66 96 999.8
20260503201335 14 30 3.2 11.3 0.00 2.06 0.66 96 999.8
20260503200435 15 35 3.2 20.9 0.00 2.06 0.66 96 999.8
20260503194635 15 46 3.2 17.7 0.05 2.06 0.66 96 999.1
20260503192834 15 56 6.4 16.1 0.13 2.06 0.66 96 998.8
20260503191033 15 31 4.8 14.5 0.15 2.06 0.66 96 998.2
20260503190134 15 37 3.2 9.7 0.13 2.03 0.66 95 997.9
20260503185235 15 41 3.2 20.9 0.13 2.03 0.64 95 997.9
20260503184334 15 8 6.4 11.3 0.13 2.01 0.61 95 997.9
20260503183433 15 15 3.2 12.9 0.10 1.98 0.56 95 997.9
20260503182534 15 18 6.4 22.5 0.05 1.96 0.53 95 997.6
20260503181633 15 13 8.0 17.7 0.05 1.93 0.51 95 997.4
20260503175835 15 68 9.7 24.1 0.15 1.93 0.51 96 997.0
20260503174934 15 42 11.3 24.1 0.18 1.88 0.48 97 997.1
20260503174034 15 30 3.2 17.7 0.18 1.88 0.48 97 997.3
20260503173134 15 23 6.4 12.9 0.23 1.88 0.48 98 997.0
20260503172234 16 57 6.4 17.7 0.28 1.88 0.48 98 996.9
20260503171334 16 42 6.4 12.9 0.20 1.80 0.43 97 996.7